Вернуться в каталог

STARLINK-4672

АктивенСвязьVLEO
NORAD 53592·PAYLOAD·🇺🇸 United States

Запущен Aug 28, 2022 с Cape Canaveral Space Force Station

Loading…

Ближайшие Пролёты (ближайшие 24 часа)

TLE

СвежийSource: CelesTrak SupGP

Эпоха: Sep 15, 2026, 01:25 UTC

1 53592C 22104E   26258.05951389  .00038226  00000+0  10936-2 0  2585
2 53592  53.1569  99.1261 0001177  82.8102  17.6276 15.35381819    14

Отслеживайте STARLINK-4672 в реальном времени с AllMySat

Download on the App Store